Location: Boiro
(42.6475°N, 8.8834°W)
Time: 09:28:08
(UTC+02:00)

First-Move - Pass Details

Date: 17 April 2024
Orbit: 538 x 600 km, 97.7° (Epoch: 20 May)

Event Time Altitude Azimuth Distance (km) Brightness Sun altitude
Rises 07:17:37 0° 354° (N) 2,855 ? -6.6°
Reaches altitude 10° 07:20:30 10° 333° (NNW) 1,957 ? -6.1°
Maximum altitude 07:23:03 16° 296° (WNW) 1,616 ? -5.6°
Drops below altitude 10° 07:25:35 10° 259° (W) 1,959 ? -5.2°
Enters shadow 07:26:46 - 248° (WSW) 2,288 ? -5.0°
